Flag for Germany Weather past 2 weeks in Schwerin, Mecklenburg-Western Pomerania, Germany

Now
55 °F

Overcast.


Feels Like: 55 °F
Forecast: 66 / 88 °F
Wind: 2 mph from East

Location: Schwerin

Current Time: Aug 3, 2015 at 2:35:04 AM

Latest Report: Aug 3, 2015 at 2:00 AM


Visibility: 8 mi

Pressure: 30.15 "Hg

Humidity: 94%

Dew point: 54 °F

Location of SchwerinLocation

Historic Weather in Schwerin — Graph

°F

Schwerin temperature yesterday

Maximum temperature yesterday: 75 °F (at 4:00 PM)
Minimum temperature yesterday: 54 °F (at 4:00 AM)
Average temperature yesterday: 67 °F

Past Weeks' High & Low Weather Summary

 TemperatureHumidityPressure
High79 °F (Jul 22, 3:00 PM)99% (Jul 24, 5:00 AM)30.16 "Hg (Jul 24, 5:00 AM)
Low45 °F (Aug 1, 4:00 AM)35% (Aug 2, 3:00 PM)29.44 "Hg (Jul 25, 2:00 PM)
Average62 °F73%29.83 "Hg
* Reported Jul 19 1:00 AM — Aug 3 1:00 AM, Schwerin, Weather by CustomWeather, © 2015

Note: Actual official high and low records may vary slightly from our data, if they occured in-between our weather recording intervals... More about our weather records

Advertising

Schwerin weather history for previous 24 hours

 ConditionsComfort  
Time TempWeatherWind HumidityBarometerVisibility
1:00 AM
Mon, Aug 3
56 °FPassing clouds.1 mph94%30.16 "Hg10 mi
10:00 PM
Sun, Aug 2
62 °FPassing clouds.2 mph69%30.15 "Hg14 mi
9:00 PM65 °FOvercast.2 mph59%30.14 "Hg18 mi
8:00 PM68 °FPassing clouds.3 mph57%30.13 "Hg17 mi
7:00 PM71 °FOvercast.3 mph53%30.12 "Hg16 mi
6:00 PM74 °FPassing clouds.3 mph48%30.12 "Hg14 mi
5:00 PM74 °FPassing clouds.3 mph39%30.12 "Hg17 mi
4:00 PM75 °FScattered clouds.2 mph37%30.12 "Hg19 mi
3:00 PM75 °FSunny.5 mph35%30.12 "Hg17 mi
2:00 PM75 °FScattered clouds.3 mph40%30.12 "Hg17 mi
1:00 PM74 °FPassing clouds.3 mph47%30.12 "Hg18 mi
12:00 PM72 °FPassing clouds.3 mph51%30.12 "Hg17 mi
11:00 AM69 °FPartly sunny.2 mph56%30.11 "Hg16 mi
10:00 AM66 °FPartly sunny.2 mph64%30.10 "Hg19 mi
9:00 AM63 °FPartly sunny.5 mph70%30.09 "Hg16 mi
8:00 AM61 °FOvercast.1 mph79%30.08 "Hg15 mi
7:00 AM56 °FScattered clouds.3 mph89%30.07 "Hg12 mi
4:00 AM54 °FOvercast.1 mph93%30.06 "Hg10 mi
Weather by CustomWeather, © 2015

See weather overviewHow to use our weather pages